STARLINK-1676, 46556

Orbit data source: Space-Track

STARLINK-1676, 46556 is a payload satellite owned by SpaceX/Seattle (US) in LEO that was launched on Tue, 06 Oct 2020 UTC via an FALCON 9 launch vehicle from the Air Force Eastern Test Range (AFETR). Payload-class satellites include a variety of spacecraft equipped with specific instruments for various scientific and technological missions. These include communications satellites like Starlink; space stations such as the ISS; scientific satellites like the Hubble; Earth observation satellites from companies like Planet Labs, Umbra, and HawkEye 360; GPS; miniature CubeSats for education and research; and military/defense satellites.

Loading next visibility...
Identifier
46556, 2020-070AA
Orbit
LEO
Last TLE update
17 hours ago
Origin
Manufacturer
SpaceX/Seattle
Mission
Operational Commercial Communications
Bus & Motor
STARLINK, Unknown motor
Mass
260 kg wet, ~248 kg dry
Launch date (UTC)
2020-10-06 (5 years ago)
Launch vehicle
FALCON 9
Launch site
Air Force Eastern Test Range (AFETR)
Object type
Payload
Rocket body
Debris
Shape & HBR
Box + 1 Pan, 8.86 m
Radar Cross Section
13.562 m², Large (>1 m²)

Expand to show TLE details & history

TLE from 17 hours ago
0 STARLINK-1676
1 46556U 20070AA  25187.26765307 -.00000294  00000-0 -88170-6 0  9991
2 46556  53.0543 202.8512 0000980  84.3612 275.7489 15.06394196262364
Epoch: 2025-07-06T06:25Z
TLE epoch observation values (Epoch: 2025-07-06T06:25:25.225Z)
Latitude
0.00001°
Longitude
-177.99768°
Altitude
548.041 km
Speed
7.589 km/s
True Right ascension
13h 31m 24s
True Declination
0° 00' 00"
Sunlit
Object was in daylight at epoch
Visualization orbit readout
Latitude
26.07464°
Longitude
-22.56774°
Altitude
548 km
Speed
7.592 km/s
Apparent Right ascension
23h 29m 43s
Apparent Declination
-5° 23' 41"
Sunlit
Object is in daylight
Visualization observer readout
Local Sidereal Time
10:59:57
Azimuth
347.061° N
Elevation
-54.833°
Doppler factor
1
Orbital elements
Apogee altitude
548.179 km
Perigee altitude
546.821 km
Semi-major axis
6,925.637 km
Eccentricity
0.0001
Inclination
53.0543°
RAAN
202.8512°
Arg. of periapsis
84.3612°
True anomaly
Unknown
Mean anomaly
275.7489°
Eccentric anomaly
Unknown
Mean motion
3.76577 °/min
Orbital period
95.6 mins
BSTAR
-8.817e-7
Loading maneuver chart data...
Loading SW <> Apogee altitude chart data...
Loading historical data...
Loading historical data...
Loading historical data...
Loading historical data...
Loading historical data...
Loading historical data...
Loading historical data...

STARLINK-1676 Visibility forecast

Observer location: undefined°, undefined°

Span
Click to sort rows by Start time (UTC) header in descending order
Start Az.
Max El. time (UTC)
Max El. Az.
Max El.
End time (UTC)
End Az.
7 mins2025-07-07 03:16:43.553Z209.036° SW2025-07-07 03:20:43.553Z119.774° SE36.837°2025-07-07 03:23:43.553Z62.553° ENE
5 mins2025-07-07 04:57:43.553Z282.083° WNW2025-07-07 04:59:43.553Z321.352° NNW25.452°2025-07-07 05:02:43.553Z25.142° NE
6 mins2025-07-07 09:59:43.553Z328.472° NNW2025-07-07 10:01:43.553Z23.998° NE37.806°2025-07-07 10:05:43.553Z111.555° ESE
4 mins2025-07-07 11:39:43.553Z260.989° W2025-07-07 11:40:43.553Z241.272° WSW20.477°2025-07-07 11:43:43.553Z185.958° SSW
|